Flag for Brazil Weather past 2 weeks in Porto Acre, Acre, Brazil

Now
79 °F

Partly sunny.


Feels Like: 82 °F
Forecast: 72 / 79 °F
Wind: 2 mph from East

Location: Rio Branco Airport

Current Time: Mar 6, 2015 at 10:03:13 AM

Latest Report: Mar 6, 2015 at 9:00 AM


Visibility: N/A

Pressure: 29.98 "Hg

Humidity: 84%

Dew point: 73 °F

Location of Porto AcreLocation

Historic Weather in Porto Acre — Graph

°F

Porto Acre temperature yesterday

Maximum temperature yesterday: 79 °F (at 3:00 PM)
Minimum temperature yesterday: 70 °F (at 4:00 AM)
Average temperature yesterday: 74 °F

Past Weeks' High & Low Weather Summary

 TemperatureHumidityPressure
High88 °F (Feb 27, 3:00 PM)100% (Feb 20, 5:00 AM)29.98 "Hg (Feb 20, 5:00 AM)
Low37 °F (Feb 20, 7:00 PM)29% (Feb 26, 4:00 AM)29.71 "Hg (Mar 2, 4:00 PM)
Average74 °F88%29.86 "Hg
* Reported Feb 19 9:00 AM — Mar 6 9:00 AM, Porto Acre, Weather by CustomWeather, © 2015

Note: Actual official high and low records may vary slightly from our data, if they occured in-between our weather recording intervals... More about our weather records

Advertising

Porto Acre weather history for previous 24 hours

 ConditionsComfort  
Time TempWeatherWind HumidityBarometerVisibility
9:00 AM
Fri, Mar 6
79 °FPartly sunny.2 mph84%29.98 "HgN/A
8:00 AM77 °FBroken clouds.2 mph89%29.95 "HgN/A
7:00 AM73 °FBroken clouds.2 mph100%29.92 "HgN/A
6:00 AM72 °FPassing clouds.No wind100%29.89 "Hg4 mi
5:00 AM72 °FPartly cloudy.2 mph100%29.89 "HgN/A
4:00 AM72 °FClear.2 mph100%29.86 "Hg10 mi
3:00 AM72 °FClear.No wind100%29.86 "Hg10 mi
2:00 AM72 °FClear.2 mph100%29.86 "Hg10 mi
1:00 AM72 °FClear.No wind100%29.89 "Hg10 mi
12:00 AM72 °FPassing clouds.2 mph100%29.89 "HgN/A
11:00 PM
Thu, Mar 5
72 °FPassing clouds.No wind100%29.92 "HgN/A
10:00 PM70 °FClear.2 mph100%29.92 "Hg10 mi
9:00 PM72 °FClear.1 mph94%29.92 "Hg10 mi
8:00 PM73 °FClear.1 mph94%29.86 "Hg10 mi
7:00 PM73 °FClear.2 mph94%29.83 "Hg10 mi
6:00 PM75 °FScattered clouds.5 mph89%29.80 "HgN/A
5:00 PM79 °FPartly sunny.5 mph84%29.80 "HgN/A
4:00 PM79 °FPartly sunny.6 mph79%29.77 "HgN/A
3:00 PM79 °FPartly sunny.7 mph84%29.80 "HgN/A
2:00 PM77 °FPartly sunny.8 mph89%29.83 "HgN/A
1:00 PM73 °FCloudy.10 mph89%29.89 "HgN/A
12:00 PM72 °FLight rain. Mostly cloudy.9 mph94%29.92 "Hg5 mi
11:00 AM72 °FLight rain. Mostly cloudy.14 mph94%29.95 "Hg4 mi
10:00 AMN/AHeavy rain.15 mphN/AN/A1 mi
Weather by CustomWeather, © 2015

See weather overviewHow to use our weather pages